Weather History for CWST - May, 2013

Change the Weather History Date:

Tuesday, May 7, 2013

  Actual Average Record
Temperature  
Mean Temperature 70 °F -  
Max Temperature 84 °F - - ()
Min Temperature 57 °F - - ()
Cooling Degree Days 6    
Growing Degree Days 20 (Base 50)    
Moisture  
Dew Point 36 °F    
Average Humidity 28    
Maximum Humidity 57    
Minimum Humidity 10    
Precipitation  
Precipitation 0.00 in - - ()
Sea Level Pressure  
Sea Level Pressure 29.98 in    
Wind  
Wind Speed 14 mph ()    
Max Wind Speed 22 mph    
Max Gust Speed 31 mph    
T = Trace of Precipitation, MM = Missing Value Source: Averaged Metar Reports

Daily Weather History Graph

Daily Weather History Graph

Search for Another Location

Airport or City:

Trip Planner

Search our weather history database for the weather conditions in past years. The results will help you decide how hot, cold, wet, or windy it might be!

Date:

Astronomy

May. 07, 2013 Rise Set
Actual Time 5:14 AM EDT 8:00 PM EDT
Civil Twilight 4:39 AM EDT 8:35 PM EDT
Nautical Twilight 3:54 AM EDT 9:20 PM EDT
Astronomical Twilight 3:01 AM EDT 10:13 PM EDT
Moon 3:56 AM EDT (5/7) 5:49 PM EDT (5/7)
Length of Visible Light 15h 56m
Length of Day
14h 45m
Waning Crescent, 5% of the Moon is Illuminated
May 7
Waning Crescent
May 9
New
May 18
First Quarter
May 25
Full
May 31
Last Quarter

Hourly Weather History & Observations

Time (EDT) Temp. Dew Point Humidity Pressure Visibility Wind Dir Wind Speed Gust Speed Precip Events Conditions
1:00 AM 70.2 °F 35.6 °F 28% 29.95 in - SW 17.3 mph - N/A   Unknown
2:00 AM 69 °F 35 °F 18% 29.94 in - SW 17.3 mph - -  
2:00 AM 69.4 °F 35.2 °F 28% 29.94 in - SW 17.3 mph 23.0 mph N/A   Unknown
3:00 AM 64.6 °F 35.2 °F 34% 29.95 in - WSW 12.7 mph 19.6 mph N/A   Unknown
4:00 AM 65.8 °F 35.2 °F 32% 29.96 in - SW 16.1 mph - N/A   Unknown
5:00 AM 64.9 °F 33.3 °F 31% 29.96 in - SW 16.1 mph - N/A   Unknown
6:00 AM 66.7 °F 28.6 °F 24% 29.97 in - SW 19.6 mph 28.8 mph N/A   Unknown
7:00 AM 66.6 °F 28.2 °F 24% 29.98 in - SW 20.7 mph 31.1 mph N/A   Unknown
8:00 AM 68 °F 31 °F 14% 29.99 in - SW 19.6 mph - -  
8:00 AM 67.6 °F 30.6 °F 25% 29.99 in - SW 19.6 mph - N/A   Unknown
9:00 AM 71.1 °F 33.8 °F 25% 29.98 in - SW 19.6 mph - N/A   Unknown
10:00 AM 74.3 °F 36.9 °F 26% 29.99 in - WSW 19.6 mph - N/A   Unknown
11:00 AM 76.1 °F 35.8 °F 23% 29.99 in - SW 20.7 mph - N/A   Unknown
1:00 PM 81.1 °F 35.6 °F 19% 29.96 in - SW 20.7 mph - N/A   Unknown
2:00 PM 82 °F 35 °F 10% 29.95 in - SW 21.9 mph - -  
2:00 PM 82.2 °F 35.1 °F 18% 29.95 in - SW 21.9 mph - N/A   Unknown
3:00 PM 82.0 °F 35.1 °F 18% 29.94 in - SW 21.9 mph 27.6 mph N/A   Unknown
4:00 PM 79.9 °F 34.5 °F 19% 29.94 in - WSW 20.7 mph - N/A   Unknown
5:00 PM 80.4 °F 35.1 °F 19% 29.95 in - WSW 15.0 mph - N/A   Unknown
6:00 PM 77.0 °F 42.1 °F 29% 29.96 in - West 9.2 mph - N/A   Unknown
7:00 PM 70.0 °F 41.7 °F 36% 30.00 in - ENE 4.6 mph - N/A   Unknown
8:00 PM 66 °F 42 °F 30% 30.02 in - East 3.5 mph - -  
8:00 PM 66.2 °F 41.9 °F 41% 30.02 in - East 3.5 mph - N/A   Unknown
9:00 PM 59.2 °F 42.3 °F 53% 30.05 in - ESE 3.5 mph - N/A   Unknown
10:00 PM 57.2 °F 42.3 °F 57% 30.07 in - East 2.3 mph - N/A   Unknown
11:00 PM 60.6 °F 40.3 °F 47% 30.08 in - ESE 3.5 mph - N/A   Unknown